Eveleth, MN

2:37 PM CST on February 27, 2017 (GMT -0600)
Eveleth-Virginia Municipal

Weather History for KEVM - December, 2013

Change the Weather History Date:

Wednesday, December 11, 2013

  Actual Average Record
Temperature  
Mean Temperature -11 °F -  
Max Temperature -4 °F 26 °F 44 °F (1998)
Min Temperature -18 °F 11 °F -18 °F (2013)
Degree Days  
Heating Degree Days 76    
Moisture  
Dew Point -17 °F    
Average Humidity 72    
Maximum Humidity 77    
Minimum Humidity 65    
Precipitation  
Precipitation 0.00 in - - ()
Sea Level Pressure  
Sea Level Pressure 30.26 in    
Wind  
Wind Speed 6 mph (WSW)    
Max Wind Speed 12 mph    
Max Gust Speed -    
Visibility 10 miles    
Events      
Averages and records for this station are not official NWS values.
T = Trace of Precipitation, MM = Missing Value Source: NWS Daily Summary

Daily Weather History Graph

Daily Weather History Graph

Search for Another Location

Airport or City:

Trip Planner

Search our weather history database for the weather conditions in past years. The results will help you decide how hot, cold, wet, or windy it might be!

Date:

Astronomy

Dec. 11, 2013 Rise Set
Actual Time 7:47 AM CST 4:19 PM CST
Civil Twilight 7:11 AM CST 4:54 PM CST
Nautical Twilight 6:32 AM CST 5:33 PM CST
Astronomical Twilight 5:55 AM CST 6:11 PM CST
Moon 1:10 PM CST (12/11) 1:50 AM CST (12/11)
Length of Visible Light 9h 42m
Length of Day
8h 31m
Waxing Gibbous, 72% of the Moon is Illuminated
Dec 11
Waxing Gibbous
Dec 17
Full
Dec 25
Last Quarter
Jan 1
New
Jan 7
First Quarter

Hourly Weather History & Observations

Time (CST) Temp. Windchill Dew Point Humidity Pressure Visibility Wind Dir Wind Speed Gust Speed Precip Events Conditions
12:05 AM -11.2 °F -23.0 °F -16.6 °F 77% 30.15 in 10.0 mi West 4.6 mph - N/A   Clear
12:25 AM -11.2 °F -23.0 °F -16.6 °F 77% 30.15 in 10.0 mi WNW 4.6 mph - N/A   Clear
12:45 AM -11.2 °F -26.4 °F -16.6 °F 77% 30.15 in 10.0 mi West 6.9 mph - N/A   Clear
1:05 AM -11.2 °F -23.0 °F -18.4 °F 70% 30.16 in 10.0 mi WNW 4.6 mph - N/A   Clear
1:25 AM -13.0 °F -28.6 °F -18.4 °F 77% 30.17 in 10.0 mi WNW 6.9 mph - N/A   Clear
1:45 AM -13.0 °F -25.1 °F -18.4 °F 77% 30.18 in 10.0 mi WNW 4.6 mph - N/A   Clear
2:05 AM -13.0 °F -25.1 °F -18.4 °F 77% 30.19 in 5.0 mi West 4.6 mph - N/A   Clear
2:25 AM -13.0 °F -27.0 °F -20.2 °F 70% 30.20 in 7.0 mi West 5.8 mph - N/A   Clear
2:45 AM -13.0 °F -22.7 °F -20.2 °F 70% 30.21 in 10.0 mi WSW 3.5 mph - N/A   Clear
3:05 AM -14.8 °F -27.2 °F -20.2 °F 77% 30.22 in 10.0 mi West 4.6 mph - N/A   Clear
3:25 AM -14.8 °F -27.2 °F -20.2 °F 77% 30.22 in 10.0 mi West 4.6 mph - N/A   Clear
3:45 AM -14.8 °F -27.2 °F -22.0 °F 70% 30.23 in 10.0 mi West 4.6 mph - N/A   Clear
4:05 AM -14.8 °F -29.1 °F -22.0 °F 70% 30.23 in 10.0 mi West 5.8 mph - N/A   Clear
4:25 AM -14.8 °F -27.2 °F -22.0 °F 70% 30.24 in 7.0 mi West 4.6 mph - N/A   Clear
4:45 AM -16.6 °F -29.3 °F -22.0 °F 76% 30.25 in 10.0 mi West 4.6 mph - N/A   Clear
5:05 AM -16.6 °F -29.3 °F -22.0 °F 76% 30.26 in 10.0 mi West 4.6 mph - N/A   Clear
5:25 AM -16.6 °F -26.8 °F -22.0 °F 76% 30.27 in 10.0 mi WSW 3.5 mph - N/A   Clear
5:45 AM -16.6 °F -32.9 °F -22.0 °F 76% 30.27 in 10.0 mi West 6.9 mph - N/A   Clear
6:05 AM -16.6 °F -31.3 °F -22.0 °F 76% 30.29 in 10.0 mi West 5.8 mph - N/A   Clear
6:25 AM -16.6 °F -34.4 °F -22.0 °F 76% 30.30 in 10.0 mi WNW 8.1 mph - N/A   Clear
6:45 AM -16.6 °F -32.9 °F -23.8 °F 70% 30.30 in 10.0 mi West 6.9 mph - N/A   Clear
7:45 AM -18.4 °F -35.1 °F -25.6 °F 70% 30.32 in 10.0 mi West 6.9 mph - N/A   Clear
8:05 AM -18.4 °F -31.4 °F -25.6 °F 70% 30.32 in 10.0 mi West 4.6 mph - N/A   Clear
8:25 AM -18.4 °F -31.4 °F -23.8 °F 76% 30.33 in 10.0 mi West 4.6 mph - N/A   Clear
8:45 AM -16.6 °F -31.3 °F -23.8 °F 70% 30.34 in 10.0 mi West 5.8 mph - N/A   Clear
9:05 AM -16.6 °F -34.4 °F -23.8 °F 70% 30.34 in 10.0 mi WNW 8.1 mph - N/A   Clear
9:25 AM -16.6 °F -29.3 °F -22.0 °F 76% 30.34 in 10.0 mi WNW 4.6 mph - N/A   Clear
9:45 AM -14.8 °F -32.2 °F -20.2 °F 77% 30.35 in 10.0 mi WNW 8.1 mph - N/A   Clear
10:05 AM -13.0 °F -30.0 °F -20.2 °F 70% 30.35 in 10.0 mi West 8.1 mph - N/A   Clear
10:25 AM -11.2 °F -26.4 °F -18.4 °F 70% 30.35 in 10.0 mi West 6.9 mph - N/A   Clear
10:45 AM -11.2 °F -26.4 °F -16.6 °F 77% 30.35 in 10.0 mi West 6.9 mph - N/A   Clear
11:05 AM -7.6 °F -23.4 °F -14.8 °F 71% 30.34 in 10.0 mi West 8.1 mph - N/A   Clear
11:25 AM -7.6 °F -24.6 °F -14.8 °F 71% 30.34 in 10.0 mi West 9.2 mph - N/A   Scattered Clouds
11:45 AM -7.6 °F -25.7 °F -14.8 °F 71% 30.33 in 10.0 mi West 10.4 mph - N/A   Scattered Clouds
12:05 PM -5.8 °F -18.4 °F -13.0 °F 71% 30.32 in 7.0 mi SW 5.8 mph - N/A   Scattered Clouds
12:25 PM -5.8 °F -21.2 °F -13.0 °F 71% 30.32 in 7.0 mi West 8.1 mph - N/A   Mostly Cloudy
12:45 PM -5.8 °F -23.4 °F -14.8 °F 65% 30.31 in 10.0 mi WSW 10.4 mph - N/A   Scattered Clouds
1:05 PM -4.0 °F -21.2 °F -13.0 °F 65% 30.30 in 10.0 mi WSW 10.4 mph - N/A   Scattered Clouds
1:25 PM -4.0 °F -21.2 °F -11.2 °F 71% 30.30 in 10.0 mi West 10.4 mph - N/A   Clear
1:45 PM -4.0 °F -17.8 °F -13.0 °F 65% 30.30 in 10.0 mi WSW 6.9 mph - N/A   Clear
2:05 PM -4.0 °F -20.2 °F -13.0 °F 65% 30.28 in 10.0 mi WSW 9.2 mph - N/A   Clear
2:25 PM -4.0 °F -22.1 °F -13.0 °F 65% 30.28 in 10.0 mi WSW 11.5 mph - N/A   Clear
2:45 PM -4.0 °F -21.2 °F -13.0 °F 65% 30.28 in 10.0 mi WSW 10.4 mph - N/A   Clear
3:05 PM -4.0 °F -20.2 °F -13.0 °F 65% 30.28 in 10.0 mi WSW 9.2 mph - N/A   Clear
3:25 PM -4.0 °F -21.2 °F -13.0 °F 65% 30.28 in 10.0 mi WSW 10.4 mph - N/A   Clear
3:45 PM -4.0 °F -17.8 °F -13.0 °F 65% 30.28 in 10.0 mi WSW 6.9 mph - N/A   Clear
4:05 PM -4.0 °F -19.0 °F -13.0 °F 65% 30.28 in 10.0 mi WSW 8.1 mph - N/A   Clear
4:25 PM -5.8 °F -18.4 °F -13.0 °F 71% 30.28 in 10.0 mi WSW 5.8 mph - N/A   Clear
4:45 PM -5.8 °F -19.9 °F -13.0 °F 71% 30.28 in 10.0 mi SW 6.9 mph - N/A   Clear
5:05 PM -5.8 °F -19.9 °F -13.0 °F 71% 30.27 in 10.0 mi SW 6.9 mph - N/A   Clear
5:25 PM -7.6 °F -23.4 °F -14.8 °F 71% 30.26 in 10.0 mi WSW 8.1 mph - N/A   Clear
5:45 PM -7.6 °F -22.1 °F -16.6 °F 65% 30.25 in 10.0 mi SW 6.9 mph - N/A   Clear
6:05 PM -7.6 °F -20.6 °F -16.6 °F 65% 30.25 in 10.0 mi SW 5.8 mph - N/A   Clear
6:25 PM -7.6 °F -22.1 °F -14.8 °F 71% 30.25 in 10.0 mi SW 6.9 mph - N/A   Clear
6:45 PM -7.6 °F -23.4 °F -14.8 °F 71% 30.25 in 10.0 mi SW 8.1 mph - N/A   Scattered Clouds
7:05 PM -7.6 °F -18.8 °F -14.8 °F 71% 30.24 in 10.0 mi SW 4.6 mph - N/A   Clear
7:25 PM -7.6 °F -18.8 °F -14.8 °F 71% 30.24 in 10.0 mi SW 4.6 mph - N/A   Scattered Clouds
7:45 PM -7.6 °F -20.6 °F -14.8 °F 71% 30.24 in 10.0 mi SW 5.8 mph - N/A   Scattered Clouds
8:05 PM -7.6 °F -23.4 °F -14.8 °F 71% 30.24 in 10.0 mi WSW 8.1 mph - N/A   Clear
8:25 PM -7.6 °F -23.4 °F -14.8 °F 71% 30.23 in 10.0 mi SW 8.1 mph - N/A   Clear
8:45 PM -7.6 °F -22.1 °F -14.8 °F 71% 30.22 in 10.0 mi SW 6.9 mph - N/A   Clear
9:05 PM -11.2 °F -23.0 °F -16.6 °F 77% 30.21 in 10.0 mi SW 4.6 mph - N/A   Clear
9:25 PM -11.2 °F -24.8 °F -16.6 °F 77% 30.20 in 10.0 mi SW 5.8 mph - N/A   Clear
9:45 PM -11.2 °F -24.8 °F -16.6 °F 77% 30.18 in 10.0 mi SW 5.8 mph - N/A   Scattered Clouds
10:05 PM -11.2 °F -24.8 °F -16.6 °F 77% 30.18 in 10.0 mi SW 5.8 mph - N/A   Mostly Cloudy
10:25 PM -11.2 °F -23.0 °F -16.6 °F 77% 30.18 in 10.0 mi SW 4.6 mph - N/A   Overcast
10:45 PM -11.2 °F -23.0 °F -16.6 °F 77% 30.18 in 10.0 mi SW 4.6 mph - N/A   Overcast
11:05 PM -7.6 °F -18.8 °F -14.8 °F 71% 30.17 in 7.0 mi SW 4.6 mph - N/A   Overcast
11:25 PM -7.6 °F -18.8 °F -14.8 °F 71% 30.16 in 4.0 mi WSW 4.6 mph - N/A   Overcast
11:45 PM -7.6 °F -18.8 °F -14.8 °F 71% 30.16 in 5.0 mi WSW 4.6 mph - N/A   Overcast